Weather History for Ortonville, MN

Change the Weather History Date:

Thursday, November 29, 2012

  Actual Average (KAQP) Record (KAQP)
Temperature  
Mean Temperature 27 °F -  
Max Temperature 35 °F 31 °F 55 °F (1998)
Min Temperature 19 °F 16 °F 0 °F (2007)
Degree Days  
Heating Degree Days 38    
Moisture  
Dew Point 22 °F    
Average Humidity 82    
Maximum Humidity 93    
Minimum Humidity 65    
Precipitation  
Precipitation 0.00 in - - ()
Sea Level Pressure  
Sea Level Pressure 30.05 in    
Wind  
Wind Speed 6 mph (NE)    
Max Wind Speed 17 mph    
Max Gust Speed 25 mph    
Visibility 8 miles    
Events Fog    
Averages and records for this station are not official NWS values.
T = Trace of Precipitation, MM = Missing Value Source: NWS Daily Summary

Daily Weather History Graph

Daily Weather History Graph

Search for Another Location

Airport:

Trip Planner

Search our weather history database for the weather conditions in past years. The results will help you decide how hot, cold, wet, or windy it might be!

Date:

Astronomy

Nov. 29, 2012 Rise Set
Actual Time 7:43 AM CST 4:45 PM CST
Civil Twilight 7:09 AM CST 5:18 PM CST
Nautical Twilight 6:33 AM CST 5:55 PM CST
Astronomical Twilight 5:57 AM CST 6:30 PM CST
Moon 5:48 PM CST (11/29) 8:31 AM CST (11/29)
Length of Visible Light 10h 08m
Length of Day
9h 02m
Full, 99% of the Moon is Illuminated
Nov 29
Full
Dec 6
Last Quarter
Dec 13
New
Dec 19
First Quarter
Dec 28
Full

Hourly Weather History & Observations

Time (CST) Temp. Windchill Dew Point Humidity Pressure Visibility Wind Dir Wind Speed Gust Speed Precip Events Conditions
12:14 AM 26.6 °F 22.6 °F 19.4 °F 74% 30.01 in 10.0 mi SE 3.5 mph - N/A   Clear
12:34 AM 23.0 °F - 17.6 °F 80% 30.02 in 10.0 mi Calm Calm - N/A   Clear
12:54 AM 24.8 °F - 19.4 °F 80% 30.02 in 10.0 mi Calm Calm - N/A   Clear
1:14 AM 21.2 °F - 17.6 °F 86% 30.02 in 10.0 mi Calm Calm - N/A   Clear
1:34 AM 21.2 °F - 17.6 °F 86% 30.02 in 10.0 mi Calm Calm - N/A   Clear
1:54 AM 23.0 °F - 19.4 °F 86% 30.02 in 10.0 mi Calm Calm - N/A   Clear
2:14 AM 19.4 °F - 15.8 °F 86% 30.03 in 10.0 mi Calm Calm - N/A   Clear
2:34 AM 19.4 °F 8.6 °F 15.8 °F 86% 30.04 in 10.0 mi NNW 9.2 mph - N/A   Clear
2:54 AM 21.2 °F 13.6 °F 19.4 °F 93% 30.04 in 10.0 mi North 5.8 mph - N/A   Clear
3:14 AM 19.4 °F 11.5 °F 17.6 °F 93% 30.04 in 10.0 mi NNW 5.8 mph - N/A   Clear
3:34 AM 21.2 °F 11.7 °F 17.6 °F 86% 30.04 in 10.0 mi NNW 8.1 mph - N/A   Clear
3:54 AM 21.2 °F 11.7 °F 17.6 °F 86% 30.05 in 7.0 mi NNW 8.1 mph - N/A   Clear
4:14 AM 19.4 °F 7.9 °F 17.6 °F 93% 30.05 in 7.0 mi NNW 10.4 mph - N/A   Clear
4:34 AM 19.4 °F 7.2 °F 17.6 °F 93% 30.04 in 7.0 mi North 11.5 mph - N/A   Clear
4:54 AM 19.4 °F 8.6 °F 15.8 °F 86% 30.05 in 7.0 mi NNW 9.2 mph - N/A   Clear
5:14 AM 19.4 °F 7.9 °F 17.6 °F 93% 30.05 in 5.0 mi NNW 10.4 mph - N/A   Mostly Cloudy
5:34 AM 19.4 °F 6.0 °F 17.6 °F 93% 30.05 in 5.0 mi NNW 13.8 mph - N/A   Mostly Cloudy
5:54 AM 19.4 °F 7.2 °F 15.8 °F 86% 30.05 in 5.0 mi North 11.5 mph - N/A   Scattered Clouds
6:14 AM 19.4 °F 9.5 °F 17.6 °F 93% 30.06 in 4.0 mi NNW 8.1 mph - N/A   Mostly Cloudy
6:34 AM 19.4 °F 6.6 °F 15.8 °F 86% 30.07 in 4.0 mi NNW 12.7 mph 17.3 mph N/A   Overcast
6:54 AM 19.4 °F 7.9 °F 15.8 °F 86% 30.07 in 1.5 mi NNW 10.4 mph - N/A   Overcast
7:13 AM 19.4 °F 8.6 °F 17.6 °F 93% 30.07 in 1.0 mi NNW 9.2 mph - N/A   Overcast
7:34 AM 19.4 °F 8.6 °F 17.6 °F 93% 30.08 in 0.8 mi NNW 9.2 mph - N/A   Overcast
7:54 AM 19.4 °F 11.5 °F 17.6 °F 93% 30.08 in 0.8 mi NNW 5.8 mph - N/A   Overcast
8:13 AM 19.4 °F 11.5 °F 17.6 °F 93% 30.07 in 0.5 mi North 5.8 mph - N/A Fog Light Freezing Fog
8:34 AM 21.2 °F 13.6 °F 17.6 °F 86% 30.08 in 0.2 mi NNW 5.8 mph - N/A Fog Light Freezing Fog
8:54 AM 21.2 °F 14.9 °F 19.4 °F 93% 30.08 in 0.5 mi NNW 4.6 mph - N/A Fog Light Freezing Fog
9:14 AM 21.2 °F 14.9 °F 19.4 °F 93% 30.08 in 0.8 mi NNW 4.6 mph - N/A   Overcast
9:34 AM 21.2 °F 14.9 °F 19.4 °F 93% 30.07 in 1.0 mi North 4.6 mph - N/A   Overcast
9:54 AM 23.0 °F 18.4 °F 21.2 °F 93% 30.08 in 3.0 mi North 3.5 mph - N/A   Scattered Clouds
10:14 AM 24.8 °F 20.5 °F 21.2 °F 86% 30.09 in 4.0 mi NNW 3.5 mph - N/A   Clear
10:34 AM 26.6 °F 20.0 °F 24.8 °F 93% 30.10 in 4.0 mi NNW 5.8 mph - N/A   Clear
10:54 AM 26.6 °F 19.1 °F 24.8 °F 93% 30.10 in 5.0 mi North 6.9 mph - N/A   Clear
11:14 AM 26.6 °F 20.0 °F 24.8 °F 93% 30.09 in 5.0 mi NNE 5.8 mph - N/A   Clear
11:33 AM 28.4 °F 20.4 °F 24.8 °F 86% 30.08 in 5.0 mi NNE 8.1 mph - N/A   Clear
11:54 AM 30.2 °F 23.4 °F 24.8 °F 80% 30.06 in 7.0 mi NE 6.9 mph - N/A   Clear
12:14 PM 30.2 °F 22.6 °F 24.8 °F 80% 30.06 in 7.0 mi NE 8.1 mph - N/A   Clear
12:34 PM 30.2 °F 24.3 °F 24.8 °F 80% 30.06 in 7.0 mi NE 5.8 mph - N/A   Clear
12:54 PM 32.0 °F 27.5 °F 24.8 °F 75% 30.06 in 7.0 mi North 4.6 mph - N/A   Clear
1:14 PM 32.0 °F 28.7 °F 24.8 °F 75% 30.05 in 7.0 mi North 3.5 mph - N/A   Clear
1:34 PM 33.8 °F - 24.8 °F 70% 30.04 in 7.0 mi Calm Calm - N/A   Clear
1:54 PM 33.8 °F 27.7 °F 24.8 °F 70% 30.02 in 10.0 mi East 6.9 mph - N/A   Clear
2:14 PM 35.6 °F 28.6 °F 24.8 °F 65% 30.02 in 10.0 mi East 9.2 mph - N/A   Clear
2:34 PM 35.6 °F 29.2 °F 24.8 °F 65% 30.01 in 10.0 mi East 8.1 mph - N/A   Clear
2:54 PM 35.6 °F 28.6 °F 24.8 °F 65% 30.00 in 10.0 mi East 9.2 mph - N/A   Clear
3:14 PM 35.6 °F 30.7 °F 24.8 °F 65% 30.01 in 10.0 mi East 5.8 mph - N/A   Clear
3:34 PM 35.6 °F 31.7 °F 24.8 °F 65% 30.01 in 10.0 mi ENE 4.6 mph - N/A   Clear
3:54 PM 35.6 °F 31.7 °F 24.8 °F 65% 30.03 in 10.0 mi NE 4.6 mph - N/A   Clear
4:14 PM 33.8 °F 29.6 °F 24.8 °F 70% 30.04 in 7.0 mi NE 4.6 mph - N/A   Clear
4:34 PM 33.8 °F 27.7 °F 23.0 °F 65% 30.03 in 10.0 mi ENE 6.9 mph - N/A   Clear
4:54 PM 32.0 °F 26.4 °F 24.8 °F 75% 30.02 in 10.0 mi ENE 5.8 mph - N/A   Clear
5:14 PM 32.0 °F 24.8 °F 24.8 °F 75% 30.03 in 10.0 mi ENE 8.1 mph - N/A   Clear
5:34 PM 30.2 °F 22.6 °F 24.8 °F 80% 30.03 in 10.0 mi ENE 8.1 mph - N/A   Clear
5:54 PM 30.2 °F 22.6 °F 24.8 °F 80% 30.04 in 10.0 mi ENE 8.1 mph - N/A   Clear
6:14 PM 30.2 °F 21.3 °F 24.8 °F 80% 30.03 in 10.0 mi ENE 10.4 mph - N/A   Clear
6:34 PM 30.2 °F 21.3 °F 24.8 °F 80% 30.04 in 10.0 mi ENE 10.4 mph - N/A   Scattered Clouds
6:54 PM 30.2 °F 18.9 °F 24.8 °F 80% 30.03 in 10.0 mi East 16.1 mph - N/A   Scattered Clouds
7:14 PM 30.2 °F 18.5 °F 24.8 °F 80% 30.02 in 10.0 mi East 17.3 mph 25.3 mph N/A   Scattered Clouds
7:34 PM 30.2 °F 19.3 °F 24.8 °F 80% 30.05 in 10.0 mi East 15.0 mph 18.4 mph N/A   Mostly Cloudy
7:54 PM 30.2 °F 21.3 °F 24.8 °F 80% 30.06 in 10.0 mi East 10.4 mph - N/A   Overcast
8:14 PM 30.2 °F 20.8 °F 24.8 °F 80% 30.07 in 10.0 mi East 11.5 mph - N/A   Overcast
8:34 PM 30.2 °F 20.8 °F 24.8 °F 80% 30.07 in 10.0 mi East 11.5 mph - N/A   Overcast
8:54 PM 30.2 °F 20.8 °F 24.8 °F 80% 30.06 in 10.0 mi East 11.5 mph - N/A   Mostly Cloudy
9:14 PM 30.2 °F 21.9 °F 24.8 °F 80% 30.07 in 10.0 mi East 9.2 mph - N/A   Mostly Cloudy
9:34 PM 30.2 °F 25.4 °F 24.8 °F 80% 30.09 in 10.0 mi ENE 4.6 mph - N/A   Scattered Clouds
9:54 PM 30.2 °F 24.3 °F 24.8 °F 80% 30.08 in 10.0 mi ENE 5.8 mph - N/A   Clear
10:14 PM 30.2 °F 24.3 °F 24.8 °F 80% 30.08 in 10.0 mi ENE 5.8 mph - N/A   Clear
10:34 PM 30.2 °F 22.6 °F 24.8 °F 80% 30.07 in 10.0 mi East 8.1 mph - N/A   Clear
10:54 PM 30.2 °F 22.6 °F 24.8 °F 80% 30.08 in 10.0 mi East 8.1 mph - N/A   Clear
11:14 PM 28.4 °F 20.4 °F 24.8 °F 86% 30.06 in 10.0 mi East 8.1 mph - N/A   Clear
11:34 PM 28.4 °F - 23.0 °F 80% 30.07 in 10.0 mi Calm Calm - N/A   Clear
11:54 PM 26.6 °F 22.6 °F 21.2 °F 80% 30.07 in 7.0 mi East 3.5 mph - N/A   Clear